www.pogodaiklimat.ru

Погода и климат >> Архив погоды >> Китай >> Xin Barag Youqi


ПОГОДА в Xin Barag Youqi

  • Прогноз погоды в Xin Barag Youqi
  • Монитор погоды в Xin Barag Youqi
  • Климат города

АРХИВ ПОГОДЫ в Xin Barag Youqi

Время (UTC), дата Ветер
(напр.,м/с)
 
Видим.   Явления Облачность Т
(С)
Тd
(С)
f
(%)
Тe
(С)
Тes
(С)
Комфортность P
(гПа)
Po
(гПа)
Тmin
(С)
Tmax
(С)
R
(мм)
R24
(мм)
S
(см)
15 9.07 С 2 30 км ?/? +16.0 +13.3 84 +16 +16 1007.8 925.3
18 9.07 С 2 30 км н/о +14.2 +12.4 89 +14 +14 1008.4 946.6 +25.8
21 9.07 С 2 30 км ?/? +13.8 +12.4 91 +13 +13 1008.2 1008.0
00 10.07 СВ 2 30 км 9/9 1000 м
[]
+18.6 +14.7 78 +20 +21 1008.5 946.9
03 10.07 В 6 26 км слабый ливневой дождь 9/9 1000 м
[]
+19.6 +15.9 79 +21 +22 комфорт 1009.7 926.2
06 10.07 В 5 30 км {ливн. осадки} 9/9 1000 м
[]
+23.3 +14.0 56 +27 +28 душно 1008.0 946.2 +13.7 0.0
09 10.07 В 9 30 км 9/9 1000 м
[]
+23.4 +13.0 52 +26 +27 жарко 1007.0 1007.0
12 10.07 В 9 30 км 9/9 1000 м
[]
+21.6 +13.0 58 +24 +24 комфорт 1005.2 1025.7
15 10.07 В 7 30 км ?/? +20.4 +15.0 71 +23 +23 комфорт 1003.4 1003.0
18 10.07 Ю 1 30 км н/о +19.7 +15.6 77 +23 +23 комфорт 1000.6 939.8 +24.5
21 10.07 Ю 5 20 км ?/? +23.2 +17.0 68 +28 +28 душно 999.0 918.4
00 11.07 Ю 7 20 км 9/9 1000 м
[]
+25.8 +17.5 60 +30 +30 душно 998.0 937.8
03 11.07 Ю 10 22 км 9/9 1000 м
[]
+27.7 +16.7 51 +31 +31 душно 996.8 997.0
06 11.07 Ю 6
{18}
22 км в посл. час ливневой дождь 9/9 1000 м
[]
+25.1 +19.7 72 +31 +31 очень
душно
995.6 935.3 +19.3 2
09 11.07 Ю 8 30 км 8/8 1000 м
[]
+28.3 +18.1 54 +33 +33 очень
душно
992.7 993.0
12 11.07 Ю 8
{17}
30 км 9/9 1000 м
[]
+24.0 +17.0 65 +28 +28 душно 993.0 933.3
15 11.07 Ю 3
{17}
30 км ?/? +22.0 +18.0 78 +27 +27 душно 993.3 993.0
18 11.07 С 4 2300 м мгла ?/? +20.8 +16.2 75 +24 +24 комфорт 990.6 1011.9 +28.8 11
21 11.07 З 4 30 км н/о +19.2 +17.7 91 +21 +21 комфорт 991.0 991.0
00 12.07 З 8 30 км 1/1 1000 м
[]
+20.4 +14.5 69 +22 +24 комфорт 991.9 931.7 0.2
03 12.07 З 10 30 км 9/9 600 м
[]
+23.3 +16.6 66 +28 +28 душно 992.3 912.1
06 12.07 З 8 30 км 8/8 600 м
[]
+25.3 +14.4 51 +28 +28 жарко 992.0 932.0 +18.5
09 12.07 З 9 30 км 3/3 600 м
[]
+26.6 +9.5 34 +27 +27 жарко 991.2 991.0
12 12.07 С 6 30 км 3/3 1000 м
[]
+19.3 +11.6 61 +20 +20 993.4 932.7
15 12.07 З 3 30 км ?/? +15.6 +12.5 82 +15 +15 994.9 995.0
18 12.07 З 8 30 км н/о +15.1 +10.3 73 +13 +13 995.0 1016.0 +27.0
21 12.07 ЮЗ 5 30 км ?/? +13.5 +9.7 78 +12 +12 996.4 996.0
00 13.07 З 9 30 км 3/3 1000 м
[]
+18.3 +10.4 60 +18 +18 996.6 935.5
03 13.07 З 9 30 км 4/4 1000 м
[]
+23.2 +10.3 44 +25 +26 комфорт 995.3 995.0
06 13.07 З 12 30 км 8/8 1000 м
[]
+26.3 +9.6 35 +27 +27 жарко 993.9 933.3 +13.2
09 13.07 СЗ 6 30 км 8/8 1000 м
[]
+26.1 +9.9 36 +27 +27 жарко 994.0 994.0
12 13.07 СЗ 3 30 км 4/4 1000 м
[]
+22.3 +11.7 51 +25 +25 комфорт 994.3 933.6
15 13.07 З 3 30 км ?/? +18.1 +12.8 71 +18 +18 995.7 914.3
18 13.07 З 1 30 км н/о +15.9 +12.5 80 +17 +17 996.2 935.6 +27.0
21 13.07 З 4 30 км ?/? +14.9 +12.4 85 +14 +14 997.2 997.0
00 14.07 СЗ 7 30 км 3/3 1000 м
[]
+21.2 +13.1 60 +24 +25 комфорт 996.7 1017.4
03 14.07 СЗ 5 30 км 8/8 1000 м
[]
+23.6 +13.8 54 +26 +28 жарко 997.1 997.0
06 14.07 С 6 30 км 8/8 1000 м
[]
+26.4 +13.5 45 +28 +30 жарко 997.0 936.3 +14.9
09 14.07 С 6 30 км 5/5 1000 м
[]
+27.3 +13.6 43 +29 +30 жарко 997.0 997.0
12 14.07 С 2 30 км 3/3 1000 м
[]
+24.3 +14.1 53 +27 +27 жарко 997.8 937.4
15 14.07 СЗ 3 30 км н/о +19.3 +14.8 75 +21 +21 комфорт 999.7 918.2
18 14.07 З 2 30 км ?/? +16.9 +13.8 82 +17 +17 1000.2 939.4 +27.9
21 14.07 З 2 30 км н/о +16.0 +13.3 84 +16 +16 1001.0 1001.0
00 15.07 СЗ 3 28 км 3/3
[]
+23.2 +14.8 59 +27 +31 душно 1001.0 1022.1
03 15.07 З 3 30 км 8/8 1000 м
[]
+27.6 +13.9 43 +30 +32 жарко 1002.0 1002.0
06 15.07 З 3 30 км 9/9 1000 м
[]
+29.5 +11.5 33 +30 +31 жарко 1000.9 940.4 +14.7
09 15.07 штиль 0 30 км 9/9 1000 м
[]
+29.4 +9.0 28 +29 +30 жарко 999.9 1000.0
12 15.07 В 3 30 км 9/9 1000 м
[]
+26.1 +13.6 46 +28 +28 жарко 1000.3 940.1
15 15.07 В 3 30 км ?/? +24.4 +15.3 57 +27 +27 жарко 1000.5 919.9
18 15.07 СВ 7 н/о мгла ?/? +21.4 +17.2 77 +25 +25 комфорт 999.6 939.6 +30.6 2
21 15.07 СВ 7 30 км н/о +19.2 +15.7 80 +20 +20 998.9 999.0
00 16.07 В 7 30 км 9/9 1000 м
[]
+20.2 +16.4 79 +23 +23 комфорт 997.8 937.5 0.7
03 16.07 В 7 27 км слабый ливневой дождь 9/9 1000 м
[]
+19.3 +18.3 94 +21 +21 комфорт 996.9 997.0
06 16.07 СВ 8 22 км слабый ливневой дождь 9/9 1000 м
[]
+20.4 +18.5 89 +24 +24 комфорт 995.9 935.2 +18.8 0.4
09 16.07 С 5 30 км {ливн. осадки} 9/9 1000 м
[]
+22.0 +18.2 79 +27 +27 душно 996.0 996.0

 

Местоположение метеостанции Xin Barag Youqi (Китай): широта 48.67 долгота 116.81 высота над уровнем моря 556 м.

В архиве по умолчанию представлена погода в Xin Barag Youqi за последнюю неделю. Архивные данные за месяц целиком и за предыдущие месяцы, начиная с января 2011 года, Вы можете получить, выбрав интересующий диапазон дат из раскрывающегося списка и нажав кнопку "Ввод!".


*Определитесь, кто Вы:
робот инопланетянин человек

Внимание! Время в таблицах - всемирное. Для получения местного времени необходимо прибавить поправку, которая в Xin Barag Youqi равна 8 ч.

Смотрите также архив погоды в соседних городах и на ближайших метеорологических станциях:

Погода в Забайкальске (Забайкальский край, Россия) (113 км)
Погода в Соловьевске (Забайкальский край, Россия) (159 км)
Погода в Кайластуе (Забайкальский край, Россия) (168 км)
Погода в Khalkh-Gol (Монголия) (177 км)
Погода в Choibalsan (Монголия) (179 км)
Погода в Matad (Монголия) (189 км)
Погода в Борзе (Забайкальский край, Россия) (194 км)
Погода в Dashbalbar (Монголия) (201 км)
Погода в Hailar (Китай) (223 км)
Погода в Бырке (Забайкальский край, Россия) (236 км)

Пояснения к столбцам:

Ветер - указаны скорость ветра в м/с - средняя за 10 мин, порывы в срок и между сроками (в фигурных скобках) и направление, откуда дует ветер: С - северный, СВ - северо-восточный, В - восточный, ЮВ - юго-восточный, Ю - южный, ЮЗ - юго-западный, З - западный, СЗ - северо-западный.
Видимость - горизонтальная дальность видимости в метрах или километрах. При видимости от 1 до 10 км при отсутствии осадков обычно наблюдается дымка, при ухудшении видимости до 1 км и менее - туман. В сухую погоду видимость может ухудшаться дымом, пылью или мглою.
Явления - указаны атмосферные явления, наблюдавшиеся в срок или в последний час перед сроком; фигурными скобками обозначены явления, наблюдавшиеся между сроками (за 1-3 часа до срока); квадратными скобками обозначены град или гололедные отложения с указанием их диаметра в мм.
Облачность - указаны через наклонную черту общая и нижняя облачность в баллах и высота нижней границы облаков в метрах; квадратными скобками обозначены формы облаков: Ci - перистые, Cs - перисто-слоистые, Cc - перисто-кучевые, Ac - высококучевые, As - высокослоистые, Sc - слоисто-кучевые, Ns - слоисто-дождевые, Cu - кучевые, Cb - кучево-дождевые. Подробнее классификацию облаков см. в Атласе облаков (PDF).
T - Температура воздуха - температура, измеренная на высоте 2 м над землей.
Td - Температура точки росы - температура, при понижении до которой содержащийся в воздухе водяной пар достигнет насыщения.
f - Относительная влажность воздуха - влажноcть воздуха, измеренная на высоте 2 м над землей.
Te - Эффективная температура - температура, которую ощущает одетый по сезону человек в тени. Характеристика душности погоды. При расчете учитывается влияние влажности воздуха и скорости ветра на теплоощущения человека.
Tes - Эффективная температура на солнце - температура, которую ощущает человек, с поправкой на солнечный нагрев. Характеристика знойности погоды. Зависит от высоты солнца над горизонтом, облачности и скорости ветра. Ночью, в пасмурную погоду, а также при ветре 12 м/с и более поправка равна нулю.
P - Атмосферное давление - приведенное к уровню моря атмосферное давление.
Po - Атмосферное давление - измеренное на уровне метеостанции атмосферное давление.
Tmin - Минимальная температура - минимум температуры воздуха на высоте 2 м над землей.
Tmax - Максимальная температура - максимум температуры воздуха на высоте 2 м над землей.
R - Количество осадков - Количество выпавших осадков за период времени, мм. При наведении курсора мыши на число - период времени, за который выпало указанное количество осадков.
R24 - Количество осадков - Количество выпавших осадков за 24 часа, мм.
S - Снежный покров - Высота снежного покрова, см. При наведении курсора мыши на число - состояние снежного покрова и степень покрытия местности в баллах.